[[{"header":{"parameterUnit":"m.s-1","parameterCategory":1,"la1":30.2991,"la2":30.254,"lo1":-89.0895,"lo2":-89.0444,"dy":0.0017,"dx":0.0017,"nx":28,"ny":28,"refTime":"2023-07-30T09:00:00:Z","depth":0,"parameterNumber":2,"parameterNumberName":"U-component_of_WINDS"},"data":[0,0,0,0,0,0,0,0,0,0,0,0,0,0,0,0,0,0,0,0,0,0,0,0,0,0,0,0,0,0,0,0,0,0,0,0,0,0,0,0,0,0,0,0,0,0,0,0,0,0,0,0,0,0,0,0,0,0,2.0167,2.0167,0,2.0216,2.0217,2.0217,2.0177,2.0175,2.0174,2.0172,2.0222,2.0225,2.0228,0,0,0,0,0,0,0,0,0,0,0,0,0,2.0037,2.0039,2.0167,2.0167,2.0168,2.0216,2.0217,2.0217,2.0177,2.0175,2.0173,2.0171,2.0221,2.0225,2.0228,0,0,0,0,0,0,0,0,0,0,0,0,0,2.009,2.004,2.0167,2.0154,2.0153,2.0216,2.0217,2.0217,2.0178,2.0175,2.0173,2.017,2.022,2.0224,2.0229,2.0307,0,0,2.0242,2.0244,0,0,0,0,0,0,0,0,2.0087,2.0095,2.0155,2.0155,2.0154,2.0188,2.0189,2.0247,2.0178,2.0168,2.0172,2.0169,2.0213,2.0218,2.0232,2.0309,2.0311,2.0242,2.0245,2.0247,2.0248,0,0,0,0,0,0,0,2.0084,2.0093,2.0186,2.0156,2.0156,2.0145,2.015,2.02,2.0204,2.0169,2.0166,2.0173,2.0212,2.0228,2.0233,2.0312,2.0242,2.0246,2.0249,2.0251,2.0452,2.0455,0,0,0,0,0,0,2.0081,2.009,2.0185,2.0188,2.0114,2.015,2.0155,2.018,2.0204,2.0205,2.0175,2.0171,2.0222,2.0228,2.0235,2.0326,2.0247,2.0251,2.0253,2.045,2.0453,2.0456,0,0,0,0,0,0,2.0079,2.009,2.0183,2.0138,2.0149,2.0154,2.0182,2.0182,2.0198,2.0208,2.0208,2.0191,2.022,2.0229,2.0288,2.0327,2.0253,2.0257,2.0446,2.0451,2.0455,2.051,0,0,0,0,0,0,2.0075,2.009,2.012,2.0139,2.0152,2.0236,2.0185,2.0185,2.0206,2.0201,2.0223,2.0224,2.0219,2.0282,2.0293,2.0332,2.026,2.0443,2.0448,2.0453,2.0505,2.0515,2.0525,0,0,0,0,0,2.0071,2.0134,2.0121,2.0133,2.0189,2.0239,2.0246,2.0238,2.0209,2.0239,2.0245,2.0223,2.0322,2.0289,2.03,2.0341,2.044,2.0447,2.0453,2.05,2.0513,2.0524,0,0,0,0,0,0,2.0119,2.0136,2.0123,2.0194,2.0215,2.0232,2.0269,2.0253,2.0283,2.0277,2.0266,2.0272,2.0334,2.0344,2.0307,2.0417,2.0376,2.0385,2.0408,2.0421,2.0431,2.0426,2.0264,0,0,0,0,0,2.0138,2.0177,2.0189,2.0251,2.0262,2.0264,2.0285,2.0278,2.0299,2.0308,2.0318,2.034,2.0375,2.0399,2.0432,2.0506,2.0509,2.054,2.055,2.0558,2.0565,2.0603,2.0617,2.0476,2.0476,2.0476,0,0,2.0177,2.0191,2.0217,2.0261,2.0276,2.0316,2.0272,2.0316,2.0345,2.0314,2.0371,2.038,2.0403,2.047,2.05,2.0479,2.0605,2.0566,2.0572,2.0575,2.0611,2.0624,2.0636,2.048,2.048,2.0479,0,0,2.0269,2.0284,2.0336,2.0353,2.0376,2.0377,2.0389,2.0408,2.0413,2.0469,2.0447,2.0481,2.0543,2.0559,2.0576,2.0673,2.0654,2.0684,2.0736,2.0773,2.0784,2.0794,2.0827,2.0839,2.0692,2.0692,2.0692,0,2.0315,2.0374,2.0365,2.0411,2.043,2.0404,2.0456,2.0472,2.0506,2.0519,2.0497,2.0572,2.0586,2.0656,2.0679,2.0694,2.0707,2.0681,2.0783,2.0793,2.0802,2.0833,2.0846,2.0695,2.0695,2.0695,2.0694,0,2.0428,2.0469,2.0509,2.0541,2.0565,2.0614,2.0611,2.0637,2.0627,2.063,2.0687,2.0703,2.0738,2.0754,2.0745,2.0822,2.0808,2.0785,2.0743,2.0819,2.0848,2.086,2.07,2.0699,2.0698,2.0697,0,0,2.0552,2.0578,2.0592,2.0606,2.063,2.0661,2.0708,2.0742,2.0763,2.0787,2.0825,2.0877,2.0855,2.0874,2.0867,2.09,2.0973,2.0872,2.0872,2.0889,2.1057,2.1073,2.1087,2.0961,2.0963,2.0965,2.1054,0,2.0643,2.0724,2.0717,2.0794,2.0831,2.0806,2.0847,2.0865,2.0869,2.0901,2.0905,2.0941,2.091,2.0921,2.0952,2.0958,2.1007,2.0951,2.0995,2.0997,2.0989,2.1103,2.1121,2.1204,2.1066,2.1067,2.1069,0,2.0761,2.0788,2.0868,2.0885,2.09,2.0937,2.0966,2.0997,2.1017,2.1017,2.1038,2.1025,2.1071,2.103,2.1092,2.1055,2.1072,2.1078,2.108,2.1083,2.1037,2.1107,2.123,2.1242,2.1087,2.1086,2.1084,0,2.084,2.0897,2.0952,2.0965,2.0986,2.1012,2.1022,2.104,2.106,2.1086,2.1099,2.113,2.1147,2.1172,2.1167,2.1137,2.123,2.1189,2.1231,2.1231,2.125,2.1249,2.1377,2.1264,2.1264,2.1264,2.1264,0,2.0942,2.0992,2.0988,2.1021,2.1076,2.1067,2.1121,2.1128,2.1144,2.1177,2.1159,2.1191,2.1183,2.1215,2.1212,2.1263,2.1271,2.1272,2.127,2.1273,2.1273,2.1283,2.1277,2.1267,2.1267,2.1266,2.1265,0,2.104,2.104,2.1097,2.1113,2.1117,2.1157,2.1169,2.1201,2.1202,2.1245,2.1255,2.1258,2.1294,2.1292,2.1333,2.1331,2.1394,2.1386,2.1387,2.1385,2.1426,2.1421,2.1564,2.1581,2.1459,2.146,2.1461,0,2.1105,2.1142,2.1161,2.1182,2.1194,2.1228,2.1249,2.1241,2.1263,2.1288,2.1316,2.1351,2.1377,2.1436,2.1442,2.1473,2.1465,2.1512,2.1469,2.147,2.1463,2.1461,2.1464,2.1521,2.1522,2.1523,2.1524,0,2.1218,2.1216,2.1246,2.1276,2.1301,2.1324,2.1345,2.1364,2.1358,2.1384,2.142,2.1441,2.1483,2.1516,2.1546,2.1555,2.1539,2.1538,2.1549,2.1551,2.1549,2.1549,2.1408,2.1534,2.1533,2.1532,2.1532,2.1532,2.13,2.1332,2.1349,2.1383,2.1398,2.1418,2.1448,2.1453,2.1483,2.1516,2.151,2.155,2.1568,2.1606,2.1618,2.1649,2.1632,2.1649,2.1653,2.1656,2.166,2.1545,2.1655,2.1655,2.1654,2.1654,2.1654,0,2.1411,2.1421,2.1453,2.1482,2.1509,2.1491,2.1513,2.1536,2.1572,2.159,2.1616,2.1658,2.169,2.1698,2.1729,2.1752,2.1745,2.176,2.1758,2.176,2.1675,2.1661,2.1765,2.1765,2.1765,2.1765,2.1765,2.1765,2.1472,2.1524,2.1523,2.1582,2.1591,2.163,2.1644,2.1662,2.1676,2.1723,2.175,2.1755,2.1768,2.18,2.1828,2.183,2.1841,2.1859,2.1858,2.1778,2.1766,2.1756,2.1743,2.1862,2.1863,2.194,2.1941,2.1941]},{"header":{"parameterUnit":"m.s-1","parameterCategory":1,"la1":30.2991,"la2":30.254,"lo1":-89.0895,"lo2":-89.0444,"dy":0.0017,"dx":0.0017,"nx":28,"ny":28,"refTime":"2023-07-30T09:00:00:Z","depth":0,"parameterNumber":3,"parameterNumberName":"V-component_of_WINDS"},"data":[0,0,0,0,0,0,0,0,0,0,0,0,0,0,0,0,0,0,0,0,0,0,0,0,0,0,0,0,0,0,0,0,0,0,0,0,0,0,0,0,0,0,0,0,0,0,0,0,0,0,0,0,0,0,0,0,0,0,1.7737,1.7736,0,1.7704,1.7704,1.7704,1.7629,1.7627,1.7626,1.7624,1.7592,1.7592,1.7593,0,0,0,0,0,0,0,0,0,0,0,0,0,1.7733,1.7734,1.7737,1.7736,1.7736,1.7704,1.7704,1.7704,1.7629,1.7627,1.7625,1.7623,1.7592,1.7592,1.7593,0,0,0,0,0,0,0,0,0,0,0,0,0,1.7721,1.7734,1.7737,1.7695,1.7691,1.7705,1.7704,1.7703,1.7629,1.7627,1.7625,1.7622,1.7591,1.7592,1.7593,1.7645,0,0,1.7596,1.7596,0,0,0,0,0,0,0,0,1.7722,1.7721,1.7701,1.7698,1.7693,1.7668,1.7691,1.7684,1.763,1.7653,1.7624,1.7621,1.7619,1.7618,1.7617,1.7644,1.7643,1.7596,1.7597,1.7597,1.7597,0,0,0,0,0,0,0,1.7723,1.7722,1.7724,1.7701,1.7696,1.7677,1.7673,1.7689,1.7649,1.765,1.7645,1.7642,1.7616,1.7616,1.7615,1.7642,1.7596,1.7597,1.7597,1.7598,1.7709,1.7711,0,0,0,0,0,0,1.773,1.7724,1.7725,1.7723,1.7702,1.7679,1.7675,1.7679,1.7649,1.7642,1.7644,1.7639,1.7616,1.7614,1.7614,1.7672,1.7597,1.7598,1.7598,1.7707,1.7709,1.7712,0,0,0,0,0,0,1.773,1.7731,1.7726,1.7722,1.772,1.7682,1.7687,1.7679,1.7679,1.7644,1.7637,1.7651,1.7614,1.7613,1.7638,1.767,1.7598,1.7599,1.7704,1.7707,1.7711,1.779,0,0,0,0,0,0,1.773,1.7731,1.7751,1.7723,1.772,1.7751,1.7689,1.768,1.768,1.7673,1.7649,1.7643,1.7612,1.7637,1.7639,1.767,1.76,1.7701,1.7705,1.771,1.7785,1.7796,1.7806,0,0,0,0,0,1.773,1.7775,1.7752,1.7753,1.7744,1.7753,1.7752,1.7715,1.7683,1.7702,1.768,1.7643,1.7666,1.764,1.7641,1.7674,1.7698,1.7704,1.7709,1.778,1.7794,1.7806,0,0,0,0,0,0,1.7809,1.7771,1.7745,1.7782,1.7771,1.774,1.7764,1.7732,1.773,1.7723,1.7678,1.7673,1.7704,1.7691,1.7663,1.7722,1.7676,1.7682,1.773,1.7743,1.7753,1.7756,1.76,0,0,0,0,0,1.783,1.784,1.7807,1.7842,1.7838,1.7802,1.7805,1.7777,1.7765,1.776,1.7739,1.7728,1.7733,1.7737,1.7739,1.7782,1.7775,1.7805,1.7816,1.7825,1.7831,1.7851,1.7864,1.773,1.773,1.773,0,0,1.7875,1.7855,1.7865,1.7858,1.7846,1.7858,1.7799,1.7814,1.7822,1.7762,1.7784,1.7769,1.7753,1.7787,1.7801,1.7778,1.7866,1.7832,1.7839,1.784,1.7858,1.7871,1.7882,1.7734,1.7733,1.7732,0,0,1.7962,1.7948,1.7976,1.7965,1.7948,1.7924,1.7931,1.7904,1.7892,1.7913,1.7868,1.7877,1.7886,1.7877,1.7873,1.7955,1.7921,1.7957,1.8014,1.8034,1.8045,1.8054,1.8083,1.8094,1.7963,1.7963,1.7963,0,1.802,1.8035,1.7995,1.8012,1.801,1.7956,1.7983,1.7975,1.796,1.796,1.7933,1.7942,1.7928,1.7959,1.7979,1.7978,1.7984,1.796,1.8046,1.8055,1.8063,1.809,1.8101,1.7968,1.7967,1.7967,1.7966,0,1.8106,1.8118,1.8142,1.8128,1.8129,1.8152,1.8114,1.812,1.8092,1.807,1.8092,1.8073,1.807,1.8075,1.8049,1.8102,1.8088,1.8055,1.8008,1.8081,1.8106,1.8116,1.7974,1.7972,1.7971,1.797,0,0,1.8243,1.8205,1.8215,1.8207,1.8184,1.8192,1.8212,1.8208,1.8214,1.8205,1.822,1.8228,1.8197,1.8193,1.8165,1.8183,1.8248,1.8147,1.8146,1.8167,1.8305,1.833,1.8343,1.8225,1.8227,1.8229,1.8306,0,1.8324,1.8356,1.8319,1.8358,1.8368,1.8316,1.8333,1.832,1.83,1.8305,1.8282,1.8289,1.8247,1.8244,1.826,1.8237,1.8276,1.8231,1.8239,1.824,1.8245,1.8356,1.8382,1.8457,1.8315,1.8317,1.8318,0,1.8424,1.8419,1.8459,1.8432,1.8434,1.845,1.8444,1.8449,1.8434,1.8417,1.8413,1.8378,1.8395,1.8349,1.8372,1.8342,1.8343,1.8332,1.8334,1.8334,1.8284,1.8358,1.8479,1.8491,1.8333,1.8332,1.8331,0,1.8519,1.8522,1.8546,1.8541,1.8511,1.8523,1.8511,1.8493,1.8493,1.8487,1.8486,1.8483,1.8481,1.8479,1.8444,1.8414,1.8471,1.8422,1.8458,1.8459,1.8472,1.8472,1.8596,1.8473,1.8473,1.8473,1.8472,0,1.8614,1.864,1.8588,1.8603,1.8631,1.8588,1.8617,1.8599,1.8583,1.8594,1.8548,1.8559,1.8513,1.8518,1.8491,1.8514,1.8513,1.85,1.8493,1.8505,1.8506,1.8505,1.8499,1.8476,1.8475,1.8474,1.8474,0,1.8725,1.8691,1.8714,1.8682,1.8675,1.8697,1.867,1.8682,1.8658,1.8672,1.8673,1.8636,1.8639,1.8605,1.8602,1.8584,1.8619,1.8602,1.8624,1.8619,1.8656,1.8653,1.8783,1.8798,1.8667,1.8668,1.8669,0,1.8788,1.8807,1.8777,1.878,1.877,1.8776,1.8776,1.8734,1.8735,1.8718,1.8732,1.8733,1.873,1.8739,1.8712,1.871,1.8693,1.8738,1.8692,1.8703,1.8693,1.8693,1.8694,1.8748,1.875,1.8751,1.8752,0,1.8903,1.8885,1.8885,1.888,1.8881,1.8875,1.8866,1.8871,1.8826,1.8829,1.8833,1.8831,1.8828,1.8828,1.8821,1.8807,1.8773,1.8767,1.8775,1.8787,1.8799,1.8793,1.8651,1.8764,1.8763,1.8762,1.8762,1.8761,1.8991,1.9005,1.8986,1.8988,1.8977,1.8969,1.8979,1.8956,1.8958,1.8952,1.8927,1.8935,1.8917,1.8903,1.8893,1.8898,1.8876,1.8888,1.8891,1.8894,1.8901,1.8798,1.8897,1.8896,1.8896,1.8895,1.8895,0,1.9103,1.9088,1.909,1.9079,1.908,1.9046,1.9034,1.9038,1.9045,1.9032,1.903,1.9034,1.9034,1.9006,1.9003,1.9012,1.8996,1.9012,1.9011,1.9009,1.8921,1.8914,1.9025,1.9025,1.9025,1.9025,1.9025,1.9025,1.9162,1.9183,1.9163,1.9179,1.9163,1.917,1.9166,1.9158,1.9147,1.9153,1.9152,1.9134,1.9115,1.9109,1.9108,1.9099,1.91,1.9123,1.9109,1.9028,1.9015,1.9003,1.8997,1.9123,1.9123,1.9196,1.9197,1.9197]}]]